Time,TemperatureF,DewpointF,PressureIn,WindDirection,WindDirectionDegrees,WindSpeedMPH,WindSpeedGustMPH,Humidity,HourlyPrecipIn,Conditions,Clouds,dailyrainin,SoftwareType,DateUTC
2013-07-31 00:01:00,58.5,48.7,29.14,North,0,0.0,0.0,70,0.00,,,0.00,meteohub,2013-07-31 04:01:00,
2013-07-31 00:02:00,58.5,48.4,29.14,North,0,0.0,0.0,69,0.00,,,0.00,meteohub,2013-07-31 04:02:00,
2013-07-31 00:07:00,58.3,48.2,29.14,North,0,0.0,0.0,69,0.00,,,0.00,meteohub,2013-07-31 04:07:00,
2013-07-31 00:12:00,58.1,48.0,29.14,North,0,0.0,0.0,69,0.00,,,0.00,meteohub,2013-07-31 04:12:00,
2013-07-31 00:17:00,57.9,47.5,29.14,North,0,0.0,0.0,68,0.00,,,0.00,meteohub,2013-07-31 04:17:00,
2013-07-31 00:22:00,57.9,47.5,29.14,North,0,0.0,0.0,68,0.00,,,0.00,meteohub,2013-07-31 04:22:00,
2013-07-31 00:27:00,57.7,47.3,29.14,North,0,0.0,0.0,68,0.00,,,0.00,meteohub,2013-07-31 04:27:00,
2013-07-31 00:32:00,57.7,46.9,29.14,North,0,0.0,0.0,67,0.00,,,0.00,meteohub,2013-07-31 04:32:00,
2013-07-31 00:37:00,57.7,46.9,29.14,North,0,0.0,0.0,67,0.00,,,0.00,meteohub,2013-07-31 04:37:00,
2013-07-31 00:42:00,57.6,46.8,29.14,North,0,0.0,0.0,67,0.00,,,0.00,meteohub,2013-07-31 04:42:00,
2013-07-31 00:47:00,57.6,46.2,29.14,North,0,0.0,0.0,66,0.00,,,0.00,meteohub,2013-07-31 04:47:00,
2013-07-31 00:52:00,57.6,46.2,29.14,North,0,0.0,0.0,66,0.00,,,0.00,meteohub,2013-07-31 04:52:00,
2013-07-31 00:57:00,57.4,45.7,29.14,North,0,0.0,0.0,65,0.00,,,0.00,meteohub,2013-07-31 04:57:00,
2013-07-31 01:02:00,57.4,45.7,29.14,North,0,0.0,0.0,65,0.00,,,0.00,meteohub,2013-07-31 05:02:00,
2013-07-31 01:07:00,57.4,45.7,29.14,North,0,0.0,0.0,65,0.00,,,0.00,meteohub,2013-07-31 05:07:00,
2013-07-31 01:12:00,57.6,45.1,29.14,North,0,0.0,0.0,63,0.00,,,0.00,meteohub,2013-07-31 05:12:00,
2013-07-31 01:17:00,57.9,45.0,29.14,North,0,0.0,0.0,62,0.00,,,0.00,meteohub,2013-07-31 05:17:00,
2013-07-31 01:22:00,58.1,45.1,29.14,North,0,0.0,0.0,62,0.00,,,0.00,meteohub,2013-07-31 05:22:00,
2013-07-31 01:27:00,58.3,45.0,29.14,North,0,0.0,0.0,61,0.00,,,0.00,meteohub,2013-07-31 05:27:00,
2013-07-31 01:32:00,58.3,45.0,29.14,North,0,0.0,0.0,61,0.00,,,0.00,meteohub,2013-07-31 05:32:00,
2013-07-31 01:37:00,58.5,45.1,29.14,North,0,0.0,0.0,61,0.00,,,0.00,meteohub,2013-07-31 05:37:00,
2013-07-31 01:42:00,58.5,44.6,29.14,North,0,0.0,0.0,60,0.00,,,0.00,meteohub,2013-07-31 05:42:00,
2013-07-31 01:47:00,58.6,44.8,29.14,North,0,0.0,0.0,60,0.00,,,0.00,meteohub,2013-07-31 05:47:00,
2013-07-31 01:52:00,58.6,44.8,29.14,North,0,0.0,0.0,60,0.00,,,0.00,meteohub,2013-07-31 05:52:00,
2013-07-31 01:57:00,59.0,44.8,29.14,North,0,0.0,0.0,59,0.00,,,0.00,meteohub,2013-07-31 05:57:00,
2013-07-31 02:02:00,58.8,44.6,29.14,North,0,0.0,0.0,59,0.00,,,0.00,meteohub,2013-07-31 06:02:00,
2013-07-31 02:07:00,59.0,44.8,29.14,North,0,0.0,0.0,59,0.00,,,0.00,meteohub,2013-07-31 06:07:00,
2013-07-31 02:12:00,59.0,44.8,29.14,North,0,0.0,0.0,59,0.00,,,0.00,meteohub,2013-07-31 06:12:00,
2013-07-31 02:17:00,59.0,44.8,29.14,North,0,0.0,0.0,59,0.00,,,0.00,meteohub,2013-07-31 06:17:00,
2013-07-31 02:22:00,59.0,44.8,29.14,North,0,0.0,0.0,59,0.00,,,0.00,meteohub,2013-07-31 06:22:00,
2013-07-31 02:27:00,59.0,44.8,29.14,North,0,0.0,0.0,59,0.00,,,0.00,meteohub,2013-07-31 06:27:00,
2013-07-31 02:33:00,59.0,44.8,29.14,North,0,0.0,0.0,59,0.00,,,0.00,meteohub,2013-07-31 06:33:00,
2013-07-31 02:38:00,59.0,44.2,29.14,North,0,0.0,0.0,58,0.00,,,0.00,meteohub,2013-07-31 06:38:00,
2013-07-31 02:43:00,59.4,44.1,29.14,North,0,0.0,0.0,57,0.00,,,0.00,meteohub,2013-07-31 06:43:00,
2013-07-31 02:48:00,59.5,44.2,29.14,North,0,0.0,0.0,57,0.00,,,0.00,meteohub,2013-07-31 06:48:00,
2013-07-31 02:53:00,59.7,44.4,29.14,North,0,0.0,0.0,57,0.00,,,0.00,meteohub,2013-07-31 06:53:00,
2013-07-31 02:58:00,59.9,44.6,29.14,North,0,0.0,0.0,57,0.00,,,0.00,meteohub,2013-07-31 06:58:00,
2013-07-31 03:03:00,60.1,44.8,29.14,North,0,0.0,0.0,57,0.00,,,0.00,meteohub,2013-07-31 07:03:00,
2013-07-31 03:08:00,60.3,45.0,29.14,North,0,0.0,0.0,57,0.00,,,0.00,meteohub,2013-07-31 07:08:00,
2013-07-31 03:13:00,60.4,45.1,29.14,North,0,0.0,0.0,57,0.00,,,0.00,meteohub,2013-07-31 07:13:00,
2013-07-31 03:18:00,60.8,45.9,29.14,North,0,0.0,0.0,58,0.00,,,0.00,meteohub,2013-07-31 07:18:00,
2013-07-31 03:23:00,61.0,46.0,29.14,North,0,0.0,0.0,58,0.00,,,0.00,meteohub,2013-07-31 07:23:00,
2013-07-31 03:28:00,61.2,46.8,29.14,North,0,0.0,0.0,59,0.00,,,0.00,meteohub,2013-07-31 07:28:00,
2013-07-31 03:33:00,61.3,46.9,29.14,North,0,0.0,0.0,59,0.00,,,0.00,meteohub,2013-07-31 07:33:00,
2013-07-31 03:38:00,61.5,47.1,29.14,North,0,0.0,0.0,59,0.00,,,0.00,meteohub,2013-07-31 07:38:00,
2013-07-31 03:43:00,61.5,47.5,29.14,North,0,0.0,0.0,60,0.00,,,0.00,meteohub,2013-07-31 07:43:00,
2013-07-31 03:48:00,61.7,47.7,29.14,North,0,0.0,0.0,60,0.00,,,0.00,meteohub,2013-07-31 07:48:00,
2013-07-31 03:53:00,61.7,47.7,29.14,North,0,0.0,0.0,60,0.00,,,0.00,meteohub,2013-07-31 07:53:00,
2013-07-31 03:58:00,61.7,48.2,29.14,North,0,0.0,0.0,61,0.00,,,0.00,meteohub,2013-07-31 07:58:00,
2013-07-31 04:03:00,61.7,48.2,29.14,North,0,0.0,0.0,61,0.00,,,0.00,meteohub,2013-07-31 08:03:00,
2013-07-31 04:08:00,61.7,48.6,29.14,North,0,0.0,0.0,62,0.00,,,0.00,meteohub,2013-07-31 08:08:00,
2013-07-31 04:13:00,61.7,48.6,29.14,North,0,0.0,0.0,62,0.00,,,0.00,meteohub,2013-07-31 08:13:00,
2013-07-31 04:18:00,61.5,48.4,29.14,North,0,0.0,0.0,62,0.00,,,0.00,meteohub,2013-07-31 08:18:00,
2013-07-31 04:23:00,61.5,48.7,29.14,North,0,0.0,0.0,63,0.00,,,0.00,meteohub,2013-07-31 08:23:00,
2013-07-31 04:28:00,61.3,48.2,29.14,North,0,0.0,0.0,62,0.00,,,0.00,meteohub,2013-07-31 08:28:00,
2013-07-31 04:33:00,61.2,48.4,29.14,North,0,0.0,0.0,63,0.00,,,0.00,meteohub,2013-07-31 08:33:00,
2013-07-31 04:38:00,61.0,48.4,29.14,North,0,0.0,0.0,63,0.00,,,0.00,meteohub,2013-07-31 08:38:00,
2013-07-31 04:43:00,61.0,48.4,29.14,North,0,0.0,0.0,63,0.00,,,0.00,meteohub,2013-07-31 08:43:00,
2013-07-31 04:48:00,60.8,48.2,29.14,North,0,0.0,0.0,63,0.00,,,0.00,meteohub,2013-07-31 08:48:00,
2013-07-31 04:53:00,60.6,48.0,29.14,North,0,0.0,0.0,63,0.00,,,0.00,meteohub,2013-07-31 08:53:00,
2013-07-31 04:58:00,60.8,47.7,29.14,North,0,0.0,0.0,62,0.00,,,0.00,meteohub,2013-07-31 08:58:00,
2013-07-31 05:03:00,60.8,47.7,29.14,North,0,0.0,0.0,62,0.00,,,0.00,meteohub,2013-07-31 09:03:00,
2013-07-31 05:08:00,60.8,47.7,29.14,North,0,0.0,0.0,62,0.00,,,0.00,meteohub,2013-07-31 09:08:00,
2013-07-31 05:13:00,60.8,47.7,29.14,North,0,0.0,0.0,62,0.00,,,0.00,meteohub,2013-07-31 09:13:00,
2013-07-31 05:18:00,60.8,47.7,29.14,North,0,0.0,0.0,62,0.00,,,0.00,meteohub,2013-07-31 09:18:00,
2013-07-31 05:23:00,60.8,47.7,29.14,North,0,0.0,0.0,62,0.00,,,0.00,meteohub,2013-07-31 09:23:00,
2013-07-31 05:29:00,61.0,47.8,29.14,North,0,0.0,0.0,62,0.00,,,0.00,meteohub,2013-07-31 09:29:00,
2013-07-31 05:34:00,61.0,47.8,29.14,North,0,0.0,0.0,62,0.00,,,0.00,meteohub,2013-07-31 09:34:00,
2013-07-31 05:39:00,61.2,47.7,29.14,North,0,0.0,0.0,61,0.00,,,0.00,meteohub,2013-07-31 09:39:00,
2013-07-31 05:44:00,61.3,47.8,29.14,North,0,0.0,0.0,61,0.00,,,0.00,meteohub,2013-07-31 09:44:00,
2013-07-31 05:49:00,61.3,47.8,29.14,North,0,0.0,0.0,61,0.00,,,0.00,meteohub,2013-07-31 09:49:00,
2013-07-31 05:54:00,61.5,47.5,29.14,North,0,0.0,0.0,60,0.00,,,0.00,meteohub,2013-07-31 09:54:00,
2013-07-31 05:59:00,61.5,47.5,29.14,North,0,0.0,0.0,60,0.00,,,0.00,meteohub,2013-07-31 09:59:00,
2013-07-31 06:04:00,61.7,47.7,29.14,North,0,0.0,0.0,60,0.00,,,0.00,meteohub,2013-07-31 10:04:00,
2013-07-31 06:09:00,61.7,47.7,29.14,North,0,0.0,0.0,60,0.00,,,0.00,meteohub,2013-07-31 10:09:00,
2013-07-31 06:14:00,61.5,47.5,29.14,North,0,0.0,0.0,60,0.00,,,0.00,meteohub,2013-07-31 10:14:00,
2013-07-31 06:19:00,61.5,47.5,29.14,North,0,0.0,0.0,60,0.00,,,0.00,meteohub,2013-07-31 10:19:00,
2013-07-31 06:24:00,61.5,48.0,29.14,North,0,0.0,0.0,61,0.00,,,0.00,meteohub,2013-07-31 10:24:00,
2013-07-31 06:29:00,61.3,47.8,29.14,North,0,0.0,0.0,61,0.00,,,0.00,meteohub,2013-07-31 10:29:00,
2013-07-31 06:34:00,61.3,47.8,29.14,North,0,0.0,0.0,61,0.00,,,0.00,meteohub,2013-07-31 10:34:00,
2013-07-31 06:39:00,61.0,47.5,29.14,North,0,0.0,0.0,61,0.00,,,0.00,meteohub,2013-07-31 10:39:00,
2013-07-31 06:44:00,61.0,47.5,29.14,North,0,0.0,0.0,61,0.00,,,0.00,meteohub,2013-07-31 10:44:00,
2013-07-31 06:49:00,60.8,47.3,29.14,North,0,0.0,0.0,61,0.00,,,0.00,meteohub,2013-07-31 10:49:00,
2013-07-31 06:54:00,60.6,47.1,29.14,North,0,0.0,0.0,61,0.00,,,0.00,meteohub,2013-07-31 10:54:00,
2013-07-31 06:59:00,60.4,46.9,29.14,North,0,0.0,0.0,61,0.00,,,0.00,meteohub,2013-07-31 10:59:00,
2013-07-31 07:04:00,60.4,46.9,29.14,North,0,0.0,0.0,61,0.00,,,0.00,meteohub,2013-07-31 11:04:00,
2013-07-31 07:09:00,60.3,46.8,29.14,North,0,0.0,0.0,61,0.00,,,0.00,meteohub,2013-07-31 11:09:00,
2013-07-31 07:14:00,60.1,46.6,29.14,North,0,0.0,0.0,61,0.00,,,0.00,meteohub,2013-07-31 11:14:00,
2013-07-31 07:19:00,60.1,46.6,29.14,North,0,0.0,0.0,61,0.00,,,0.00,meteohub,2013-07-31 11:19:00,
2013-07-31 07:24:00,59.9,46.4,29.14,North,0,0.0,0.0,61,0.00,,,0.00,meteohub,2013-07-31 11:24:00,
2013-07-31 07:29:00,60.1,46.6,29.14,North,0,0.0,0.0,61,0.00,,,0.00,meteohub,2013-07-31 11:29:00,
2013-07-31 07:34:00,60.3,46.4,29.14,North,0,0.0,0.0,60,0.00,,,0.00,meteohub,2013-07-31 11:34:00,
2013-07-31 07:39:00,60.3,46.4,29.14,North,0,0.0,0.0,60,0.00,,,0.00,meteohub,2013-07-31 11:39:00,
2013-07-31 07:44:00,60.6,46.2,29.14,North,0,0.0,0.0,59,0.00,,,0.00,meteohub,2013-07-31 11:44:00,
2013-07-31 07:49:00,60.8,45.9,29.14,North,0,0.0,0.0,58,0.00,,,0.00,meteohub,2013-07-31 11:49:00,
2013-07-31 07:54:00,61.2,45.9,29.14,North,0,0.0,0.0,57,0.00,,,0.00,meteohub,2013-07-31 11:54:00,
2013-07-31 07:59:00,61.7,45.9,29.14,North,0,0.0,0.0,56,0.00,,,0.00,meteohub,2013-07-31 11:59:00,
2013-07-31 08:04:00,61.9,46.0,29.14,North,0,0.0,0.0,56,0.00,,,0.00,meteohub,2013-07-31 12:04:00,
2013-07-31 08:09:00,62.1,46.2,29.14,North,0,0.0,0.0,56,0.00,,,0.00,meteohub,2013-07-31 12:09:00,
2013-07-31 08:14:00,62.2,46.4,29.14,North,0,0.0,0.0,56,0.00,,,0.00,meteohub,2013-07-31 12:14:00,
2013-07-31 08:19:00,62.6,46.8,29.14,North,0,0.0,0.0,56,0.00,,,0.00,meteohub,2013-07-31 12:19:00,
2013-07-31 08:24:00,63.3,47.3,29.14,North,0,0.0,0.0,56,0.00,,,0.00,meteohub,2013-07-31 12:24:00,
2013-07-31 08:29:00,63.9,47.8,29.14,North,0,0.0,0.0,56,0.00,,,0.00,meteohub,2013-07-31 12:29:00,
2013-07-31 08:34:00,63.9,48.4,29.14,North,0,0.0,0.0,57,0.00,,,0.00,meteohub,2013-07-31 12:34:00,
2013-07-31 08:39:00,64.2,49.1,29.14,North,0,0.0,0.0,58,0.00,,,0.00,meteohub,2013-07-31 12:39:00,
2013-07-31 08:44:00,64.2,49.1,29.14,North,0,0.0,0.0,58,0.00,,,0.00,meteohub,2013-07-31 12:44:00,
2013-07-31 08:49:00,64.8,49.6,29.14,North,0,0.0,0.0,58,0.00,,,0.00,meteohub,2013-07-31 12:49:00,
2013-07-31 08:54:00,65.1,50.4,29.14,North,0,0.0,0.0,59,0.00,,,0.00,meteohub,2013-07-31 12:54:00,
2013-07-31 08:59:00,65.7,50.9,29.14,North,0,0.0,0.0,59,0.00,,,0.00,meteohub,2013-07-31 12:59:00,
2013-07-31 09:05:00,66.0,52.2,29.14,North,0,0.0,0.0,61,0.00,,,0.00,meteohub,2013-07-31 13:05:00,
2013-07-31 09:10:00,66.0,52.7,29.14,North,0,0.0,0.0,62,0.00,,,0.00,meteohub,2013-07-31 13:10:00,
2013-07-31 09:15:00,66.4,52.9,29.14,North,0,0.0,0.0,62,0.00,,,0.00,meteohub,2013-07-31 13:15:00,
2013-07-31 09:20:00,66.6,53.1,29.14,North,0,0.0,0.0,62,0.00,,,0.00,meteohub,2013-07-31 13:20:00,
2013-07-31 09:25:00,66.4,53.4,29.14,North,0,0.0,0.0,63,0.00,,,0.00,meteohub,2013-07-31 13:25:00,
2013-07-31 09:30:00,66.6,53.6,29.14,North,0,0.0,0.0,63,0.00,,,0.00,meteohub,2013-07-31 13:30:00,
2013-07-31 09:35:00,66.6,54.0,29.14,North,0,0.0,0.0,64,0.00,,,0.00,meteohub,2013-07-31 13:35:00,
2013-07-31 09:40:00,66.4,53.8,29.14,North,0,0.0,0.0,64,0.00,,,0.00,meteohub,2013-07-31 13:40:00,
2013-07-31 09:45:00,66.6,54.0,29.14,North,0,0.0,0.0,64,0.00,,,0.00,meteohub,2013-07-31 13:45:00,
2013-07-31 09:50:00,66.7,54.1,29.14,North,0,0.0,0.0,64,0.00,,,0.00,meteohub,2013-07-31 13:50:00,
2013-07-31 09:55:00,66.9,54.9,29.14,North,0,0.0,0.0,65,0.00,,,0.00,meteohub,2013-07-31 13:55:00,
2013-07-31 10:00:00,66.9,54.9,29.14,North,0,0.0,0.0,65,0.00,,,0.00,meteohub,2013-07-31 14:00:00,
2013-07-31 10:05:00,67.1,55.4,29.14,North,0,0.0,0.0,66,0.00,,,0.00,meteohub,2013-07-31 14:05:00,
2013-07-31 10:10:00,67.5,55.8,29.14,North,0,0.0,0.0,66,0.00,,,0.00,meteohub,2013-07-31 14:10:00,
2013-07-31 10:15:00,67.8,56.1,29.14,North,0,0.0,0.0,66,0.00,,,0.00,meteohub,2013-07-31 14:15:00,
2013-07-31 10:20:00,68.4,57.0,29.14,North,0,0.0,0.0,67,0.00,,,0.00,meteohub,2013-07-31 14:20:00,
2013-07-31 10:25:00,68.7,57.4,29.14,North,0,0.0,0.0,67,0.00,,,0.00,meteohub,2013-07-31 14:25:00,
2013-07-31 10:30:00,69.3,57.9,29.14,North,0,0.0,0.0,67,0.00,,,0.00,meteohub,2013-07-31 14:30:00,
2013-07-31 10:35:00,69.6,58.6,29.14,North,0,0.0,0.0,68,0.00,,,0.00,meteohub,2013-07-31 14:35:00,
2013-07-31 10:40:00,70.3,59.4,29.14,North,0,0.0,0.0,68,0.00,,,0.00,meteohub,2013-07-31 14:40:00,
2013-07-31 10:45:00,71.1,60.4,29.14,North,0,0.0,0.0,69,0.00,,,0.00,meteohub,2013-07-31 14:45:00,
2013-07-31 10:50:00,71.2,60.6,29.14,North,0,0.0,0.0,69,0.00,,,0.00,meteohub,2013-07-31 14:50:00,
2013-07-31 10:55:00,71.4,60.8,29.14,North,0,0.0,0.0,69,0.00,,,0.00,meteohub,2013-07-31 14:55:00,
2013-07-31 11:00:00,71.8,61.0,29.14,North,0,0.0,0.0,69,0.00,,,0.00,meteohub,2013-07-31 15:00:00,
2013-07-31 11:05:00,72.1,61.3,29.14,North,0,0.0,0.0,69,0.00,,,0.00,meteohub,2013-07-31 15:05:00,
2013-07-31 11:10:00,72.5,62.2,29.14,North,0,0.0,0.0,70,0.00,,,0.00,meteohub,2013-07-31 15:10:00,
2013-07-31 11:15:00,72.9,62.4,29.14,North,0,0.0,0.0,70,0.00,,,0.00,meteohub,2013-07-31 15:15:00,
2013-07-31 11:20:00,72.9,62.4,29.14,North,0,0.0,0.0,70,0.00,,,0.00,meteohub,2013-07-31 15:20:00,
2013-07-31 11:25:00,73.0,62.6,29.14,North,0,0.0,0.0,70,0.00,,,0.00,meteohub,2013-07-31 15:25:00,
2013-07-31 11:30:00,73.2,62.4,29.14,North,0,0.0,0.0,69,0.00,,,0.00,meteohub,2013-07-31 15:30:00,
2013-07-31 11:35:00,73.6,62.8,29.14,North,0,0.0,0.0,69,0.00,,,0.00,meteohub,2013-07-31 15:35:00,
2013-07-31 11:40:00,73.4,62.6,29.14,North,0,0.0,0.0,69,0.00,,,0.00,meteohub,2013-07-31 15:40:00,
2013-07-31 11:45:00,73.2,62.4,29.14,North,0,0.0,0.0,69,0.00,,,0.00,meteohub,2013-07-31 15:45:00,
2013-07-31 11:50:00,72.7,61.9,29.14,North,0,0.0,0.0,69,0.00,,,0.00,meteohub,2013-07-31 15:50:00,
2013-07-31 11:55:00,72.5,61.7,29.14,North,0,0.0,0.0,69,0.00,,,0.00,meteohub,2013-07-31 15:55:00,
2013-07-31 12:00:00,72.9,62.1,29.14,North,0,0.0,0.0,69,0.00,,,0.00,meteohub,2013-07-31 16:00:00,
2013-07-31 12:05:00,73.2,62.4,29.14,North,0,0.0,0.0,69,0.00,,,0.00,meteohub,2013-07-31 16:05:00,
2013-07-31 12:11:00,73.8,62.6,29.14,North,0,0.0,0.0,68,0.00,,,0.00,meteohub,2013-07-31 16:11:00,
2013-07-31 12:16:00,74.1,63.3,29.14,North,0,0.0,0.0,69,0.00,,,0.00,meteohub,2013-07-31 16:16:00,
2013-07-31 12:21:00,74.1,63.3,29.14,North,0,0.0,0.0,69,0.00,,,0.00,meteohub,2013-07-31 16:21:00,
2013-07-31 12:26:00,74.3,63.1,29.14,North,0,0.0,0.0,68,0.00,,,0.00,meteohub,2013-07-31 16:26:00,
2013-07-31 12:31:00,74.3,63.1,29.14,North,0,0.0,0.0,68,0.00,,,0.00,meteohub,2013-07-31 16:31:00,
2013-07-31 12:36:00,74.1,62.4,29.14,North,0,0.0,0.0,67,0.00,,,0.00,meteohub,2013-07-31 16:36:00,
2013-07-31 12:41:00,73.8,62.1,29.14,North,0,0.0,0.0,67,0.00,,,0.00,meteohub,2013-07-31 16:41:00,
2013-07-31 12:46:00,74.7,63.0,29.14,North,0,0.0,0.0,67,0.00,,,0.00,meteohub,2013-07-31 16:46:00,
2013-07-31 12:51:00,75.4,64.0,29.14,North,0,0.0,0.0,68,0.00,,,0.00,meteohub,2013-07-31 16:51:00,
2013-07-31 12:56:00,75.7,63.1,29.14,North,0,0.0,0.0,65,0.00,,,0.00,meteohub,2013-07-31 16:56:00,
2013-07-31 13:02:00,76.1,63.5,29.14,North,0,0.0,0.0,65,0.00,,,0.00,meteohub,2013-07-31 17:02:00,
2013-07-31 13:07:00,76.6,63.5,29.14,North,0,0.0,0.0,64,0.00,,,0.00,meteohub,2013-07-31 17:07:00,
2013-07-31 13:12:00,77.5,63.9,29.14,North,0,0.0,0.0,63,0.00,,,0.00,meteohub,2013-07-31 17:12:00,
2013-07-31 13:17:00,78.1,64.4,29.14,North,0,0.0,0.0,63,0.00,,,0.00,meteohub,2013-07-31 17:17:00,
2013-07-31 13:23:00,78.1,63.1,29.14,North,0,0.0,0.0,60,0.00,,,0.00,meteohub,2013-07-31 17:23:00,
2013-07-31 13:28:00,77.2,63.1,29.14,North,0,0.0,0.0,62,0.00,,,0.00,meteohub,2013-07-31 17:28:00,
2013-07-31 13:33:00,77.2,63.7,29.14,North,0,0.0,0.0,63,0.00,,,0.00,meteohub,2013-07-31 17:33:00,
2013-07-31 13:38:00,76.8,63.7,29.14,North,0,0.0,0.0,64,0.00,,,0.00,meteohub,2013-07-31 17:38:00,
2013-07-31 13:43:00,76.3,63.1,29.14,North,0,0.0,0.0,64,0.00,,,0.00,meteohub,2013-07-31 17:43:00,
2013-07-31 13:48:00,75.9,62.8,29.14,North,0,0.0,0.0,64,0.00,,,0.00,meteohub,2013-07-31 17:48:00,
2013-07-31 13:53:00,75.7,63.1,29.14,North,0,0.0,0.0,65,0.00,,,0.00,meteohub,2013-07-31 17:53:00,
2013-07-31 13:58:00,75.6,63.3,29.14,North,0,0.0,0.0,66,0.00,,,0.00,meteohub,2013-07-31 17:58:00,
2013-07-31 14:03:00,75.4,63.1,29.14,North,0,0.0,0.0,66,0.00,,,0.00,meteohub,2013-07-31 18:03:00,
2013-07-31 14:10:00,75.4,63.7,29.14,North,0,0.0,0.0,67,0.00,,,0.00,meteohub,2013-07-31 18:10:00,
2013-07-31 14:15:00,75.4,63.1,29.14,North,0,0.0,0.0,66,0.00,,,0.00,meteohub,2013-07-31 18:15:00,
2013-07-31 14:20:00,75.6,63.9,29.14,North,0,0.0,0.0,67,0.00,,,0.00,meteohub,2013-07-31 18:20:00,
2013-07-31 14:25:00,75.6,63.9,29.14,North,0,0.0,0.0,67,0.00,,,0.00,meteohub,2013-07-31 18:25:00,
2013-07-31 14:30:00,75.7,63.5,29.14,North,0,0.0,0.0,66,0.00,,,0.00,meteohub,2013-07-31 18:30:00,
2013-07-31 14:35:00,75.7,63.5,29.14,North,0,0.0,0.0,66,0.00,,,0.00,meteohub,2013-07-31 18:35:00,
2013-07-31 14:40:00,75.7,64.0,29.14,North,0,0.0,0.0,67,0.00,,,0.00,meteohub,2013-07-31 18:40:00,
2013-07-31 14:45:00,75.6,63.9,29.14,North,0,0.0,0.0,67,0.00,,,0.00,meteohub,2013-07-31 18:45:00,
2013-07-31 14:50:00,75.4,63.7,29.14,North,0,0.0,0.0,67,0.00,,,0.00,meteohub,2013-07-31 18:50:00,
2013-07-31 14:55:00,75.4,64.0,29.14,North,0,0.0,0.0,68,0.00,,,0.00,meteohub,2013-07-31 18:55:00,
2013-07-31 15:00:00,75.4,64.0,29.14,North,0,0.0,0.0,68,0.00,,,0.00,meteohub,2013-07-31 19:00:00,
2013-07-31 15:05:00,75.4,64.0,29.14,North,0,0.0,0.0,68,0.00,,,0.00,meteohub,2013-07-31 19:05:00,
2013-07-31 15:10:00,75.4,64.0,29.14,North,0,0.0,0.0,68,0.00,,,0.00,meteohub,2013-07-31 19:10:00,
2013-07-31 15:15:00,75.4,64.0,29.14,North,0,0.0,0.0,68,0.00,,,0.00,meteohub,2013-07-31 19:15:00,
2013-07-31 15:20:00,75.6,64.2,29.14,North,0,0.0,0.0,68,0.00,,,0.00,meteohub,2013-07-31 19:20:00,
2013-07-31 15:25:00,75.6,64.2,29.14,North,0,0.0,0.0,68,0.00,,,0.00,meteohub,2013-07-31 19:25:00,
2013-07-31 15:30:00,75.4,64.0,29.14,North,0,0.0,0.0,68,0.00,,,0.00,meteohub,2013-07-31 19:30:00,
2013-07-31 15:35:00,75.4,64.0,29.14,North,0,0.0,0.0,68,0.00,,,0.00,meteohub,2013-07-31 19:35:00,
2013-07-31 15:40:00,74.8,64.0,29.14,North,0,0.0,0.0,69,0.00,,,0.00,meteohub,2013-07-31 19:40:00,
2013-07-31 15:45:00,74.3,63.5,29.14,North,0,0.0,0.0,69,0.00,,,0.00,meteohub,2013-07-31 19:45:00,
2013-07-31 15:50:00,74.3,63.9,29.14,North,0,0.0,0.0,70,0.00,,,0.00,meteohub,2013-07-31 19:50:00,
2013-07-31 15:51:00,74.3,63.9,29.14,North,0,0.0,0.0,70,0.00,,,0.00,meteohub,2013-07-31 19:51:00,
2013-07-31 15:56:00,74.3,63.9,29.14,North,0,0.0,0.0,70,0.00,,,0.00,meteohub,2013-07-31 19:56:00,
2013-07-31 16:02:00,74.5,64.0,29.14,North,0,0.0,0.0,70,0.00,,,0.00,meteohub,2013-07-31 20:02:00,
2013-07-31 16:07:00,74.5,63.7,29.14,North,0,0.0,0.0,69,0.00,,,0.00,meteohub,2013-07-31 20:07:00,
2013-07-31 16:12:00,74.5,63.7,29.14,North,0,0.0,0.0,69,0.00,,,0.00,meteohub,2013-07-31 20:12:00,
2013-07-31 16:17:00,74.8,63.5,29.14,North,0,0.0,0.0,68,0.00,,,0.00,meteohub,2013-07-31 20:17:00,
2013-07-31 16:22:00,75.2,63.9,29.14,North,0,0.0,0.0,68,0.00,,,0.00,meteohub,2013-07-31 20:22:00,
2013-07-31 16:27:00,75.0,63.3,29.14,North,0,0.0,0.0,67,0.00,,,0.00,meteohub,2013-07-31 20:27:00,
2013-07-31 16:32:00,75.0,63.3,29.14,North,0,0.0,0.0,67,0.00,,,0.00,meteohub,2013-07-31 20:32:00,
2013-07-31 16:37:00,75.6,63.9,29.14,North,0,0.0,0.0,67,0.00,,,0.00,meteohub,2013-07-31 20:37:00,
2013-07-31 16:42:00,75.7,64.0,29.14,North,0,0.0,0.0,67,0.00,,,0.00,meteohub,2013-07-31 20:42:00,
2013-07-31 16:47:00,75.6,63.9,29.14,North,0,0.0,0.0,67,0.00,,,0.00,meteohub,2013-07-31 20:47:00,
2013-07-31 16:52:00,75.4,63.7,29.14,North,0,0.0,0.0,67,0.00,,,0.00,meteohub,2013-07-31 20:52:00,
2013-07-31 16:57:00,74.8,63.1,29.14,North,0,0.0,0.0,67,0.00,,,0.00,meteohub,2013-07-31 20:57:00,
2013-07-31 17:02:00,74.7,63.0,29.14,North,0,0.0,0.0,67,0.00,,,0.00,meteohub,2013-07-31 21:02:00,
2013-07-31 17:07:00,75.2,63.5,29.14,North,0,0.0,0.0,67,0.00,,,0.00,meteohub,2013-07-31 21:07:00,
2013-07-31 17:12:00,75.7,64.0,29.14,North,0,0.0,0.0,67,0.00,,,0.00,meteohub,2013-07-31 21:12:00,
2013-07-31 17:17:00,76.3,64.0,29.14,North,0,0.0,0.0,66,0.00,,,0.00,meteohub,2013-07-31 21:17:00,
2013-07-31 17:22:00,77.0,64.8,29.14,North,0,0.0,0.0,66,0.00,,,0.00,meteohub,2013-07-31 21:22:00,
2013-07-31 17:27:00,77.5,64.8,29.14,North,0,0.0,0.0,65,0.00,,,0.00,meteohub,2013-07-31 21:27:00,
2013-07-31 17:32:00,77.4,63.9,29.14,North,0,0.0,0.0,63,0.00,,,0.00,meteohub,2013-07-31 21:32:00,
2013-07-31 17:37:00,76.3,63.1,29.14,North,0,0.0,0.0,64,0.00,,,0.00,meteohub,2013-07-31 21:37:00,
2013-07-31 17:43:00,76.1,63.9,29.14,North,0,0.0,0.0,66,0.00,,,0.00,meteohub,2013-07-31 21:43:00,
2013-07-31 17:48:00,76.1,64.4,29.14,North,0,0.0,0.0,67,0.00,,,0.00,meteohub,2013-07-31 21:48:00,
2013-07-31 17:53:00,75.9,63.7,29.14,North,0,0.0,0.0,66,0.00,,,0.00,meteohub,2013-07-31 21:53:00,
2013-07-31 17:58:00,75.6,63.0,29.14,North,0,0.0,0.0,65,0.00,,,0.00,meteohub,2013-07-31 21:58:00,
2013-07-31 18:03:00,75.2,62.6,29.14,North,0,0.0,0.0,65,0.00,,,0.00,meteohub,2013-07-31 22:03:00,
2013-07-31 18:08:00,75.0,63.0,29.14,North,0,0.0,0.0,66,0.00,,,0.00,meteohub,2013-07-31 22:08:00,
2013-07-31 18:13:00,75.0,63.3,29.14,North,0,0.0,0.0,67,0.00,,,0.00,meteohub,2013-07-31 22:13:00,
2013-07-31 18:18:00,75.0,63.3,29.14,North,0,0.0,0.0,67,0.00,,,0.00,meteohub,2013-07-31 22:18:00,
2013-07-31 18:23:00,74.8,63.1,29.14,North,0,0.0,0.0,67,0.00,,,0.00,meteohub,2013-07-31 22:23:00,
2013-07-31 18:28:00,74.8,63.1,29.14,North,0,0.0,0.0,67,0.00,,,0.00,meteohub,2013-07-31 22:28:00,
2013-07-31 18:33:00,74.7,63.3,29.14,North,0,0.0,0.0,68,0.00,,,0.00,meteohub,2013-07-31 22:33:00,
2013-07-31 18:38:00,74.1,63.7,29.14,North,0,0.0,0.0,70,0.00,,,0.00,meteohub,2013-07-31 22:38:00,
2013-07-31 18:43:00,73.6,63.1,29.14,North,0,0.0,0.0,70,0.00,,,0.00,meteohub,2013-07-31 22:43:00,
2013-07-31 18:48:00,73.4,63.5,29.14,North,0,0.0,0.0,71,0.00,,,0.00,meteohub,2013-07-31 22:48:00,
2013-07-31 18:53:00,73.2,63.3,29.14,North,0,0.0,0.0,71,0.00,,,0.00,meteohub,2013-07-31 22:53:00,
2013-07-31 18:58:00,73.0,63.1,29.14,North,0,0.0,0.0,71,0.00,,,0.00,meteohub,2013-07-31 22:58:00,
2013-07-31 19:03:00,73.0,63.1,29.14,North,0,0.0,0.0,71,0.00,,,0.00,meteohub,2013-07-31 23:03:00,
2013-07-31 19:08:00,72.9,63.3,29.14,North,0,0.0,0.0,72,0.00,,,0.00,meteohub,2013-07-31 23:08:00,
2013-07-31 19:13:00,73.0,63.5,29.14,North,0,0.0,0.0,72,0.00,,,0.00,meteohub,2013-07-31 23:13:00,
2013-07-31 19:18:00,73.0,63.5,29.14,North,0,0.0,0.0,72,0.00,,,0.00,meteohub,2013-07-31 23:18:00,
2013-07-31 19:23:00,73.0,63.5,29.14,North,0,0.0,0.0,72,0.00,,,0.00,meteohub,2013-07-31 23:23:00,
2013-07-31 19:28:00,73.0,63.5,29.14,North,0,0.0,0.0,72,0.00,,,0.00,meteohub,2013-07-31 23:28:00,
2013-07-31 19:33:00,72.9,63.3,29.14,North,0,0.0,0.0,72,0.00,,,0.00,meteohub,2013-07-31 23:33:00,
2013-07-31 19:38:00,72.7,63.1,29.14,North,0,0.0,0.0,72,0.00,,,0.00,meteohub,2013-07-31 23:38:00,
2013-07-31 19:43:00,72.5,63.0,29.14,North,0,0.0,0.0,72,0.00,,,0.00,meteohub,2013-07-31 23:43:00,
2013-07-31 19:48:00,72.3,62.8,29.14,North,0,0.0,0.0,72,0.00,,,0.00,meteohub,2013-07-31 23:48:00,
2013-07-31 19:53:00,72.1,62.6,29.14,North,0,0.0,0.0,72,0.00,,,0.00,meteohub,2013-07-31 23:53:00,
2013-07-31 19:58:00,72.1,62.6,29.14,North,0,0.0,0.0,72,0.00,,,0.00,meteohub,2013-07-31 23:58:00,
2013-07-31 20:03:00,71.8,62.6,29.14,North,0,0.0,0.0,73,0.00,,,0.00,meteohub,2013-08-01 00:03:00,
2013-07-31 20:08:00,71.8,62.6,29.14,North,0,0.0,0.0,73,0.00,,,0.00,meteohub,2013-08-01 00:08:00,
2013-07-31 20:13:00,71.6,62.4,29.14,North,0,0.0,0.0,73,0.00,,,0.00,meteohub,2013-08-01 00:13:00,
2013-07-31 20:18:00,71.2,62.1,29.14,North,0,0.0,0.0,73,0.00,,,0.00,meteohub,2013-08-01 00:18:00,
2013-07-31 20:23:00,71.2,62.1,29.14,North,0,0.0,0.0,73,0.00,,,0.00,meteohub,2013-08-01 00:23:00,
2013-07-31 20:28:00,70.9,61.3,29.14,North,0,0.0,0.0,72,0.00,,,0.00,meteohub,2013-08-01 00:28:00,
2013-07-31 20:33:00,70.3,60.4,29.14,North,0,0.0,0.0,71,0.00,,,0.00,meteohub,2013-08-01 00:33:00,
2013-07-31 20:38:00,69.6,59.7,29.14,North,0,0.0,0.0,71,0.00,,,0.00,meteohub,2013-08-01 00:38:00,
2013-07-31 20:43:00,69.1,59.4,29.14,North,0,0.0,0.0,71,0.00,,,0.00,meteohub,2013-08-01 00:43:00,
2013-07-31 20:48:00,68.4,57.4,29.14,North,0,0.0,0.0,68,0.00,,,0.00,meteohub,2013-08-01 00:48:00,
2013-07-31 20:53:00,67.1,57.0,29.14,North,0,0.0,0.0,70,0.00,,,0.00,meteohub,2013-08-01 00:53:00,
2013-07-31 20:59:00,65.5,55.8,29.14,North,0,0.0,0.0,71,0.00,,,0.00,meteohub,2013-08-01 00:59:00,
2013-07-31 21:04:00,64.6,55.0,29.14,North,0,0.0,0.0,71,0.00,,,0.00,meteohub,2013-08-01 01:04:00,
2013-07-31 21:08:00,63.9,54.3,29.14,North,0,0.0,0.0,71,0.00,,,0.00,meteohub,2013-08-01 01:08:00,
2013-07-31 21:13:00,63.3,53.8,29.14,North,0,0.0,0.0,71,0.00,,,0.00,meteohub,2013-08-01 01:13:00,
2013-07-31 21:18:00,62.4,52.9,29.14,North,0,0.0,0.0,71,0.00,,,0.00,meteohub,2013-08-01 01:18:00,
2013-07-31 21:24:00,61.9,52.0,29.14,North,0,0.0,0.0,70,0.00,,,0.00,meteohub,2013-08-01 01:24:00,
2013-07-31 21:29:00,61.0,50.7,29.14,North,0,0.0,0.0,69,0.00,,,0.00,meteohub,2013-08-01 01:29:00,
2013-07-31 21:34:00,60.3,49.6,29.14,North,0,0.0,0.0,68,0.00,,,0.00,meteohub,2013-08-01 01:34:00,
2013-07-31 21:39:00,59.9,48.6,29.14,North,0,0.0,0.0,66,0.00,,,0.00,meteohub,2013-08-01 01:39:00,
2013-07-31 21:44:00,59.5,48.2,29.14,North,0,0.0,0.0,66,0.00,,,0.00,meteohub,2013-08-01 01:44:00,
2013-07-31 21:49:00,59.4,47.1,29.14,North,0,0.0,0.0,64,0.00,,,0.00,meteohub,2013-08-01 01:49:00,
2013-07-31 21:54:00,59.0,46.8,29.14,North,0,0.0,0.0,64,0.00,,,0.00,meteohub,2013-08-01 01:54:00,
2013-07-31 21:59:00,59.0,46.4,29.14,North,0,0.0,0.0,63,0.00,,,0.00,meteohub,2013-08-01 01:59:00,
2013-07-31 22:04:00,59.0,46.0,29.14,North,0,0.0,0.0,62,0.00,,,0.00,meteohub,2013-08-01 02:04:00,
2013-07-31 22:09:00,59.0,45.5,29.14,North,0,0.0,0.0,61,0.00,,,0.00,meteohub,2013-08-01 02:09:00,
2013-07-31 22:14:00,59.0,45.5,29.14,North,0,0.0,0.0,61,0.00,,,0.00,meteohub,2013-08-01 02:14:00,
2013-07-31 22:19:00,59.0,45.1,29.14,North,0,0.0,0.0,60,0.00,,,0.00,meteohub,2013-08-01 02:19:00,
2013-07-31 22:24:00,59.0,44.8,29.14,North,0,0.0,0.0,59,0.00,,,0.00,meteohub,2013-08-01 02:24:00,
2013-07-31 22:29:00,59.0,44.2,29.14,North,0,0.0,0.0,58,0.00,,,0.00,meteohub,2013-08-01 02:29:00,
2013-07-31 22:34:00,59.0,43.7,29.14,North,0,0.0,0.0,57,0.00,,,0.00,meteohub,2013-08-01 02:34:00,
2013-07-31 22:39:00,59.0,43.7,29.14,North,0,0.0,0.0,57,0.00,,,0.00,meteohub,2013-08-01 02:39:00,
2013-07-31 22:44:00,59.0,43.7,29.14,North,0,0.0,0.0,57,0.00,,,0.00,meteohub,2013-08-01 02:44:00,
2013-07-31 22:49:00,59.0,43.3,29.14,North,0,0.0,0.0,56,0.00,,,0.00,meteohub,2013-08-01 02:49:00,
2013-07-31 22:54:00,59.0,43.3,29.14,North,0,0.0,0.0,56,0.00,,,0.00,meteohub,2013-08-01 02:54:00,
2013-07-31 22:59:00,59.4,43.7,29.14,North,0,0.0,0.0,56,0.00,,,0.00,meteohub,2013-08-01 02:59:00,
2013-07-31 23:04:00,59.4,43.2,29.14,North,0,0.0,0.0,55,0.00,,,0.00,meteohub,2013-08-01 03:04:00,
2013-07-31 23:09:00,59.4,42.8,29.14,North,0,0.0,0.0,54,0.00,,,0.00,meteohub,2013-08-01 03:09:00,
2013-07-31 23:14:00,59.4,42.8,29.14,North,0,0.0,0.0,54,0.00,,,0.00,meteohub,2013-08-01 03:14:00,
2013-07-31 23:19:00,59.4,42.8,29.14,North,0,0.0,0.0,54,0.00,,,0.00,meteohub,2013-08-01 03:19:00,
2013-07-31 23:24:00,59.4,42.8,29.14,North,0,0.0,0.0,54,0.00,,,0.00,meteohub,2013-08-01 03:24:00,
2013-07-31 23:29:00,59.4,42.8,29.14,North,0,0.0,0.0,54,0.00,,,0.00,meteohub,2013-08-01 03:29:00,
2013-07-31 23:34:00,59.2,42.6,29.14,North,0,0.0,0.0,54,0.00,,,0.00,meteohub,2013-08-01 03:34:00,
2013-07-31 23:39:00,59.0,42.4,29.14,North,0,0.0,0.0,54,0.00,,,0.00,meteohub,2013-08-01 03:39:00,
2013-07-31 23:44:00,59.0,42.4,29.14,North,0,0.0,0.0,54,0.00,,,0.00,meteohub,2013-08-01 03:44:00,
2013-07-31 23:49:00,59.0,42.4,29.14,North,0,0.0,0.0,54,0.00,,,0.00,meteohub,2013-08-01 03:49:00,
2013-07-31 23:54:00,59.0,42.4,29.14,North,0,0.0,0.0,54,0.00,,,0.00,meteohub,2013-08-01 03:54:00,
2013-07-31 23:59:00,59.0,42.4,29.14,North,0,0.0,0.0,54,0.00,,,0.00,meteohub,2013-08-01 03:59:00,